Flag Weather past 2 weeks in Zoetermeer, Netherlands

Now
48 °F

Clear.


Feels Like: 42 °F
Forecast: 35 / 42 °F
Wind: 16 mph from East

Location: Rotterdam Zestienhoven Airport

Current Time: Nov 28, 2014 at 3:01:08 PM

Latest Report: Nov 28, 2014 at 2:25 PM


Visibility: 5 mi

Pressure: 29.71 "Hg

Humidity: 82%

Dew point: 43 °F

Location of ZoetermeerLocation

Historic Weather in Zoetermeer — Graph

°F

Zoetermeer temperature yesterday

Maximum temperature yesterday: 48 °F (at 11:25 AM)
Minimum temperature yesterday: 45 °F (at 12:25 AM)
Average temperature yesterday: 46 °F

Past Weeks' High & Low Weather Summary

 TemperatureHumidityPressure
High57 °F (Nov 13, 1:55 PM)100% (Nov 14, 5:55 PM)30.33 "Hg (Nov 14, 5:55 PM)
Low30 °F (Nov 25, 5:55 AM)67% (Nov 13, 1:55 PM)29.47 "Hg (Nov 16, 5:55 PM)
Average46 °F91%29.91 "Hg
* Reported Nov 13 1:25 PM — Nov 28 1:55 PM, Zoetermeer, Weather by CustomWeather, © 2014

Note: Actual official high and low records may vary slightly from our data, if they occured in-between our weather recording intervals... More about our weather records

Advertising

Zoetermeer weather history for previous 24 hours

 ConditionsComfort  
Time TempWeatherWind HumidityBarometerVisibility
1:55 PM
Nov 28
48 °FClear.14 mph82%29.71 "Hg5 mi
1:25 PM46 °FClear.12 mph87%29.74 "Hg5 mi
12:55 PM46 °FClear.14 mph87%29.74 "Hg5 mi
12:25 PM46 °FClear.13 mph87%29.74 "Hg5 mi
11:55 AM46 °FClear.9 mph82%29.74 "Hg4 mi
11:25 AM46 °FClear.13 mph87%29.74 "Hg4 mi
10:55 AM45 °FClear.13 mph87%29.74 "Hg4 mi
10:25 AM45 °FClear.13 mph87%29.74 "Hg4 mi
9:55 AM45 °FClear.12 mph87%29.74 "Hg4 mi
9:25 AM45 °FClear.9 mph87%29.74 "Hg4 mi
8:55 AM43 °FFog.10 mph93%29.71 "Hg3 mi
8:25 AM43 °FFog.13 mph93%29.71 "Hg3 mi
7:55 AM43 °FFog.14 mph100%29.71 "Hg2 mi
7:25 AM43 °FFog.13 mph100%29.71 "Hg2 mi
6:55 AM43 °FFog.13 mph93%29.71 "Hg2 mi
6:25 AM43 °FFog.10 mph93%29.71 "Hg3 mi
5:55 AM43 °FPassing clouds.10 mph93%29.71 "Hg4 mi
5:25 AM43 °FPassing clouds.10 mph93%29.71 "Hg4 mi
4:25 AM45 °FPassing clouds.12 mph93%29.68 "Hg4 mi
3:55 AM45 °FClear.9 mph93%29.71 "Hg4 mi
3:25 AM45 °FOvercast.12 mph93%29.71 "Hg4 mi
2:55 AM45 °FLow clouds.10 mph93%29.71 "Hg4 mi
2:25 AM45 °FLow clouds.12 mph93%29.71 "Hg4 mi
1:55 AM45 °FFog.9 mph100%29.68 "Hg3 mi
1:25 AM45 °FFog.12 mph100%29.71 "Hg3 mi
12:55 AM45 °FFog.12 mph100%29.71 "Hg3 mi
12:25 AM45 °FFog.9 mph100%29.71 "Hg2 mi
11:55 PM
Nov 27
45 °FFog.9 mph100%29.68 "Hg2 mi
11:25 PM46 °FFog.10 mph93%29.68 "Hg3 mi
10:55 PM46 °FFog.12 mph93%29.68 "Hg2 mi
10:25 PM45 °FFog.9 mph100%29.68 "Hg2 mi
9:55 PM45 °FFog.9 mph100%29.68 "Hg2 mi
9:25 PM45 °FFog.9 mph100%29.68 "Hg2 mi
8:55 PM45 °FFog.12 mph100%29.68 "Hg2 mi
8:25 PM45 °FFog.10 mph100%29.68 "Hg2 mi
7:55 PM45 °FLight rain. Passing clouds.10 mph100%29.68 "Hg1 mi
7:25 PM46 °FDrizzle. Mostly cloudy.9 mph93%29.68 "Hg2 mi
6:55 PM46 °FFog.9 mph93%29.68 "Hg3 mi
6:25 PM46 °FLight rain. Passing clouds.12 mph93%29.68 "Hg3 mi
5:55 PM46 °FPassing clouds.10 mph93%29.68 "Hg3 mi
5:25 PM46 °FFog.10 mph93%29.68 "Hg3 mi
4:55 PM46 °FLight rain. Clear.8 mph93%29.68 "Hg4 mi
4:25 PM46 °FSprinkles. Passing clouds.9 mph93%29.68 "Hg3 mi
3:55 PM46 °FDrizzle. Partly sunny.9 mph93%29.68 "Hg4 mi
3:25 PM48 °FBroken clouds.10 mph87%29.68 "Hg5 mi
Weather by CustomWeather, © 2014

See weather overviewHow to use our weather pages